• en Suisse
  • Liste des pays
  • À 7 jours
  • Température de l'eau
  • Carte satellitaire
  • Carte météo
  • Widgets météo
  • user-avatar
    Se connecter

    Météo par heure à Kalemie

    Ce jour, 17 Décembre, Dimanche

    Heure Température Précipitation Vent Pression Humidité
    00:00 +28°C° 0 mm 1 m/s 705 mmHg 28%
    01:00 +27°C° 0 mm 1 m/s 705 mmHg 29%
    02:00 +26°C° 0 mm 1 m/s 705 mmHg 30%
    03:00 +26°C° 0 mm 1 m/s 705 mmHg 30%
    04:00 +25°C° 0 mm 1 m/s 705 mmHg 31%
    05:00 +25°C° 0 mm 1 m/s 705 mmHg 31%
    06:00 +26°C° 0 mm 1 m/s 705 mmHg 28%
    07:00 +28°C° 0 mm 2 m/s 706 mmHg 25%
    08:00 +29°C° 0 mm 2 m/s 706 mmHg 21%
    09:00 +32°C° 0 mm 2 m/s 706 mmHg 19%
    10:00 +35°C° 0 mm 3 m/s 706 mmHg 17%
    11:00 +38°C° 0 mm 3 m/s 706 mmHg 15%
    12:00 +39°C° 0 mm 3 m/s 706 mmHg 15%
    13:00 +40°C° 0 mm 2 m/s 705 mmHg 14%
    14:00 +41°C° 0 mm 2 m/s 704 mmHg 14%
    15:00 +40°C° 0 mm 2 m/s 704 mmHg 14%
    16:00 +39°C° 0 mm 2 m/s 703 mmHg 15%
    17:00 +39°C° 0 mm 2 m/s 703 mmHg 15%
    18:00 +37°C° 0 mm 2 m/s 703 mmHg 17%
    19:00 +34°C° 0 mm 1 m/s 704 mmHg 19%
    20:00 +31°C° 0 mm 1 m/s 704 mmHg 22%
    21:00 +31°C° 0 mm 1 m/s 704 mmHg 22%
    22:00 +30°C° 0 mm 1 m/s 704 mmHg 23%
    23:00 +29°C° 0 mm 1 m/s 705 mmHg 24%

    Demain, 18 Décembre, Lundi

    Heure Température Précipitation Vent Pression Humidité
    00:00 +29°C° 0 mm 1 m/s 704 mmHg 25%
    01:00 +28°C° 0 mm 1 m/s 704 mmHg 26%
    02:00 +28°C° 0 mm 1 m/s 704 mmHg 27%
    03:00 +27°C° 0 mm 1 m/s 704 mmHg 27%
    04:00 +27°C° 0 mm 1 m/s 704 mmHg 28%
    05:00 +26°C° 0 mm 1 m/s 704 mmHg 29%
    06:00 +28°C° 0 mm 1 m/s 705 mmHg 27%
    07:00 +30°C° 0 mm 2 m/s 706 mmHg 24%
    08:00 +31°C° 0 mm 2 m/s 707 mmHg 22%
    09:00 +34°C° 0 mm 3 m/s 706 mmHg 20%
    10:00 +37°C° 0 mm 3 m/s 706 mmHg 18%
    11:00 +39°C° 0 mm 3 m/s 706 mmHg 17%
    12:00 +40°C° 0 mm 3 m/s 705 mmHg 17%
    13:00 +40°C° 0 mm 3 m/s 705 mmHg 17%
    14:00 +40°C° 0 mm 3 m/s 704 mmHg 17%
    15:00 +40°C° 0 mm 3 m/s 703 mmHg 18%
    16:00 +39°C° 0 mm 3 m/s 703 mmHg 20%
    17:00 +38°C° 0 mm 3 m/s 702 mmHg 21%
    18:00 +37°C° 0 mm 2 m/s 703 mmHg 24%
    19:00 +35°C° 0 mm 2 m/s 703 mmHg 27%
    20:00 +32°C° 0 mm 2 m/s 704 mmHg 30%
    21:00 +32°C° 0 mm 1 m/s 704 mmHg 30%
    22:00 +31°C° 0 mm 1 m/s 704 mmHg 31%
    23:00 +31°C° 0 mm 1 m/s 704 mmHg 31%

    Après-demain, 19 Décembre, Mardi

    Heure Température Précipitation Vent Pression Humidité
    00:00 +31°C° 0 mm 1 m/s 704 mmHg 31%
    01:00 +30°C° 0 mm 1 m/s 704 mmHg 32%
    02:00 +30°C° 0 mm 1 m/s 703 mmHg 32%
    03:00 +29°C° 0 mm 1 m/s 703 mmHg 33%
    04:00 +29°C° 0 mm 1 m/s 703 mmHg 35%
    05:00 +28°C° 0 mm 1 m/s 703 mmHg 36%
    06:00 +30°C° 0 mm 1 m/s 704 mmHg 33%
    07:00 +31°C° 0 mm 1 m/s 705 mmHg 31%
    08:00 +32°C° 0 mm 1 m/s 706 mmHg 28%
    09:00 +35°C° 0 mm 2 m/s 706 mmHg 26%
    10:00 +37°C° 0 mm 2 m/s 706 mmHg 23%
    11:00 +39°C° 0 mm 3 m/s 707 mmHg 20%
    12:00 +38°C° 0 mm 3 m/s 706 mmHg 21%
    13:00 +38°C° 0 mm 2 m/s 705 mmHg 22%
    14:00 +37°C° 0 mm 2 m/s 704 mmHg 22%
    15:00 +37°C° 0 mm 2 m/s 703 mmHg 22%
    16:00 +37°C° 0 mm 2 m/s 703 mmHg 22%
    17:00 +37°C° 0 mm 2 m/s 703 mmHg 22%
    18:00 +36°C° 0 mm 2 m/s 703 mmHg 25%
    19:00 +34°C° 0 mm 2 m/s 704 mmHg 28%
    20:00 +31°C° 0 mm 1 m/s 704 mmHg 31%
    21:00 +31°C° 0 mm 1 m/s 704 mmHg 32%
    22:00 +30°C° 0 mm 1 m/s 704 mmHg 33%
    23:00 +30°C° 0 mm 1 m/s 704 mmHg 35%

    20 Décembre, Mercredi

    Heure Température Précipitation Vent Pression Humidité
    00:00 +29°C° 0 mm 1 m/s 704 mmHg 36%
    01:00 +28°C° 0 mm 1 m/s 704 mmHg 37%
    02:00 +28°C° 0 mm 1 m/s 703 mmHg 38%
    03:00 +27°C° 0 mm 1 m/s 704 mmHg 38%
    04:00 +27°C° 0 mm 1 m/s 704 mmHg 39%
    05:00 +27°C° 0 mm 1 m/s 704 mmHg 39%
    06:00 +28°C° 0 mm 1 m/s 705 mmHg 36%
    07:00 +30°C° 0 mm 1 m/s 706 mmHg 33%
    08:00 +32°C° 0 mm 2 m/s 706 mmHg 29%
    09:00 +35°C° 0 mm 2 m/s 706 mmHg 25%
    10:00 +38°C° 0 mm 2 m/s 706 mmHg 21%
    11:00 +40°C° 0 mm 2 m/s 706 mmHg 17%
    12:00 +40°C° 0 mm 2 m/s 705 mmHg 17%
    13:00 +40°C° 0 mm 2 m/s 705 mmHg 17%
    14:00 +39°C° 0 mm 2 m/s 704 mmHg 17%
    15:00 +39°C° 0 mm 2 m/s 704 mmHg 17%
    16:00 +39°C° 0 mm 2 m/s 704 mmHg 17%
    17:00 +38°C° 0 mm 2 m/s 704 mmHg 18%
    18:00 +37°C° 0 mm 2 m/s 704 mmHg 20%
    19:00 +35°C° 0 mm 2 m/s 705 mmHg 21%
    20:00 +34°C° 0 mm 2 m/s 705 mmHg 23%
    21:00 +32°C° 0 mm 2 m/s 705 mmHg 24%
    22:00 +31°C° 0 mm 1 m/s 705 mmHg 26%
    23:00 +30°C° 0 mm 1 m/s 705 mmHg 27%

    21 Décembre, Jeudi

    Heure Température Précipitation Vent Pression Humidité
    00:00 +30°C° 0 mm 1 m/s 705 mmHg 28%
    01:00 +29°C° 0 mm 1 m/s 704 mmHg 29%
    02:00 +29°C° 0 mm 1 m/s 704 mmHg 30%
    03:00 +28°C° 0 mm 1 m/s 704 mmHg 31%
    04:00 +27°C° 0 mm 1 m/s 705 mmHg 32%
    05:00 +27°C° 0 mm 1 m/s 705 mmHg 33%
    06:00 +28°C° 0 mm 1 m/s 705 mmHg 30%
    07:00 +30°C° 0 mm 1 m/s 706 mmHg 27%
    08:00 +31°C° 0 mm 1 m/s 707 mmHg 24%
    09:00 +35°C° 0 mm 2 m/s 707 mmHg 20%
    10:00 +38°C° 0 mm 2 m/s 707 mmHg 17%
    11:00 +42°C° 0 mm 3 m/s 707 mmHg 14%
    12:00 +42°C° 0 mm 3 m/s 706 mmHg 13%
    13:00 +43°C° 0 mm 3 m/s 705 mmHg 12%
    14:00 +43°C° 0 mm 3 m/s 704 mmHg 11%
    15:00 +43°C° 0 mm 3 m/s 704 mmHg 12%
    16:00 +42°C° 0 mm 3 m/s 704 mmHg 12%
    17:00 +40°C° 0 mm 3 m/s 703 mmHg 13%
    18:00 +38°C° 0 mm 3 m/s 704 mmHg 15%
    19:00 +36°C° 0 mm 2 m/s 704 mmHg 17%
    20:00 +34°C° 0 mm 2 m/s 704 mmHg 19%
    21:00 +32°C° 0 mm 2 m/s 704 mmHg 20%
    22:00 +31°C° 0 mm 2 m/s 704 mmHg 21%
    23:00 +30°C° 0 mm 2 m/s 704 mmHg 22%

    22 Décembre, Vendredi

    Heure Température Précipitation Vent Pression Humidité
    00:00 +30°C° 0 mm 2 m/s 704 mmHg 22%
    01:00 +29°C° 0 mm 1 m/s 704 mmHg 22%
    02:00 +28°C° 0 mm 1 m/s 704 mmHg 22%
    03:00 +28°C° 0 mm 1 m/s 704 mmHg 23%
    04:00 +27°C° 0 mm 1 m/s 704 mmHg 23%
    05:00 +26°C° 0 mm 1 m/s 704 mmHg 24%
    06:00 +28°C° 0 mm 1 m/s 705 mmHg 22%
    07:00 +29°C° 0 mm 1 m/s 706 mmHg 21%
    08:00 +31°C° 0 mm 1 m/s 706 mmHg 19%
    09:00 +34°C° 0 mm 1 m/s 706 mmHg 17%
    10:00 +37°C° 0 mm 1 m/s 706 mmHg 14%
    11:00 +41°C° 0 mm 1 m/s 706 mmHg 12%
    12:00 +42°C° 0 mm 1 m/s 705 mmHg 11%
    13:00 +43°C° 0 mm 1 m/s 705 mmHg 10%
    14:00 +44°C° 0 mm 1 m/s 704 mmHg 10%
    15:00 +43°C° 0 mm 1 m/s 704 mmHg 10%
    16:00 +41°C° 0 mm 1 m/s 703 mmHg 11%
    17:00 +40°C° 0 mm 1 m/s 703 mmHg 11%
    18:00 +37°C° 0 mm 1 m/s 703 mmHg 13%
    19:00 +35°C° 0 mm 1 m/s 703 mmHg 15%
    20:00 +33°C° 0 mm 1 m/s 703 mmHg 17%
    21:00 +32°C° 0 mm 1 m/s 703 mmHg 17%
    22:00 +29°C° 0 mm 0 m/s 703 mmHg 18%
    23:00 +29°C° 0 mm 0 m/s 703 mmHg 19%
    Voir plus